Time,TemperatureF,DewpointF,PressureIn,WindDirection,WindDirectionDegrees,WindSpeedMPH,WindSpeedGustMPH,Humidity,HourlyPrecipIn,Conditions,Clouds,dailyrainin,SoftwareType,DateUTC
2013-04-14 00:02:00,47.6,45.0,29.75,WSW,255,7.0,20.0,92,0.00,,,0.00,weatherlink.com 1.10,2013-04-14 07:02:00,
2013-04-14 00:17:00,47.7,46.0,29.76,SW,214,3.0,16.0,92,0.00,,,0.00,weatherlink.com 1.10,2013-04-14 07:17:00,
2013-04-14 00:32:00,47.9,46.0,29.76,NNE,18,4.0,16.0,91,0.00,,,0.00,weatherlink.com 1.10,2013-04-14 07:32:00,
2013-04-14 00:47:00,47.7,46.0,29.76,SSW,204,6.0,16.0,92,0.00,,,0.00,weatherlink.com 1.10,2013-04-14 07:47:00,
2013-04-14 01:02:00,47.6,45.0,29.76,SSW,204,11.0,16.0,92,0.00,,,0.00,weatherlink.com 1.10,2013-04-14 08:02:00,
2013-04-14 01:17:00,47.5,45.0,29.75,WSW,238,9.0,21.0,92,0.00,,,0.00,weatherlink.com 1.10,2013-04-14 08:17:00,
2013-04-14 01:32:00,47.5,45.0,29.75,SSW,194,11.0,19.0,92,0.00,,,0.00,weatherlink.com 1.10,2013-04-14 08:32:00,
2013-04-14 01:47:00,47.3,45.0,29.75,South,189,7.0,15.0,92,0.00,,,0.00,weatherlink.com 1.10,2013-04-14 08:47:00,
2013-04-14 02:02:00,47.0,45.0,29.74,SSW,210,13.0,24.0,93,0.00,,,0.00,weatherlink.com 1.10,2013-04-14 09:02:00,
2013-04-14 02:17:00,46.8,45.0,29.74,SE,141,13.0,21.0,93,0.00,,,0.00,weatherlink.com 1.10,2013-04-14 09:17:00,
2013-04-14 02:32:00,46.7,45.0,29.74,SSE,166,13.0,20.0,93,0.00,,,0.00,weatherlink.com 1.10,2013-04-14 09:32:00,
2013-04-14 02:47:00,46.5,45.0,29.74,WSW,243,8.0,22.0,93,0.00,,,0.00,weatherlink.com 1.10,2013-04-14 09:47:00,
2013-04-14 03:02:00,46.4,45.0,29.74,WNW,299,5.0,22.0,93,0.00,,,0.00,weatherlink.com 1.10,2013-04-14 10:02:00,
2013-04-14 03:17:00,46.3,45.0,29.74,South,186,14.0,18.0,94,0.00,,,0.00,weatherlink.com 1.10,2013-04-14 10:17:00,
2013-04-14 03:32:00,46.2,45.0,29.73,SSE,167,5.0,22.0,94,0.00,,,0.00,weatherlink.com 1.10,2013-04-14 10:32:00,
2013-04-14 03:47:00,46.1,45.0,29.73,WSW,242,10.0,18.0,94,0.00,,,0.00,weatherlink.com 1.10,2013-04-14 10:47:00,
2013-04-14 04:02:00,46.1,45.0,29.73,SSE,148,11.0,18.0,94,0.00,,,0.00,weatherlink.com 1.10,2013-04-14 11:02:00,
2013-04-14 04:17:00,46.0,44.0,29.73,South,170,7.0,22.0,94,0.00,,,0.00,weatherlink.com 1.10,2013-04-14 11:17:00,
2013-04-14 04:32:00,45.9,44.0,29.73,ESE,110,8.0,20.0,94,0.00,,,0.00,weatherlink.com 1.10,2013-04-14 11:32:00,
2013-04-14 04:47:00,45.8,44.0,29.73,South,179,9.0,22.0,94,0.00,,,0.00,weatherlink.com 1.10,2013-04-14 11:47:00,
2013-04-14 05:02:00,45.6,44.0,29.74,West,263,11.0,18.0,95,0.00,,,0.00,weatherlink.com 1.10,2013-04-14 12:02:00,
2013-04-14 05:17:00,45.6,44.0,29.74,SSW,211,4.0,18.0,95,0.00,,,0.00,weatherlink.com 1.10,2013-04-14 12:17:00,
2013-04-14 05:32:00,45.5,44.0,29.74,SW,218,9.0,18.0,95,0.00,,,0.00,weatherlink.com 1.10,2013-04-14 12:32:00,
2013-04-14 05:47:00,45.4,44.0,29.74,SSW,201,12.0,17.0,95,0.00,,,0.00,weatherlink.com 1.10,2013-04-14 12:47:00,
2013-04-14 06:02:00,45.3,44.0,29.74,SSW,193,6.0,17.0,95,0.00,,,0.00,weatherlink.com 1.10,2013-04-14 13:02:00,
2013-04-14 06:17:00,45.3,44.0,29.73,South,191,9.0,18.0,95,0.00,,,0.00,weatherlink.com 1.10,2013-04-14 13:17:00,
2013-04-14 06:33:00,45.2,44.0,29.73,SSW,210,5.0,19.0,95,0.00,,,0.00,weatherlink.com 1.10,2013-04-14 13:33:00,
2013-04-14 06:48:00,45.1,44.0,29.74,SSE,164,11.0,16.0,95,0.00,,,0.00,weatherlink.com 1.10,2013-04-14 13:48:00,
2013-04-14 07:03:00,45.1,44.0,29.74,South,173,8.0,14.0,95,0.00,,,0.00,weatherlink.com 1.10,2013-04-14 14:03:00,
2013-04-14 07:18:00,45.1,44.0,29.75,South,186,7.0,13.0,95,0.00,,,0.00,weatherlink.com 1.10,2013-04-14 14:18:00,
2013-04-14 07:33:00,45.3,44.0,29.76,SW,215,9.0,14.0,95,0.00,,,0.00,weatherlink.com 1.10,2013-04-14 14:33:00,
2013-04-14 07:48:00,46.5,45.0,29.76,NW,318,1.0,11.0,94,0.00,,,0.00,weatherlink.com 1.10,2013-04-14 14:48:00,
2013-04-14 08:03:00,46.8,45.0,29.76,WSW,238,6.0,14.0,92,0.00,,,0.00,weatherlink.com 1.10,2013-04-14 15:03:00,
2013-04-14 08:18:00,47.4,45.0,29.76,SW,218,11.0,14.0,91,0.00,,,0.00,weatherlink.com 1.10,2013-04-14 15:18:00,
2013-04-14 08:33:00,48.9,46.0,29.77,SW,235,5.0,13.0,88,0.00,,,0.00,weatherlink.com 1.10,2013-04-14 15:33:00,
2013-04-14 08:48:00,50.5,46.0,29.77,SSW,204,1.0,11.0,83,0.00,,,0.00,weatherlink.com 1.10,2013-04-14 15:48:00,
2013-04-14 09:18:00,57.7,45.0,29.75,West,279,8.0,12.0,62,0.00,,,0.00,weatherlink.com 1.10,2013-04-14 16:18:00,
2013-04-14 09:33:00,59.5,44.0,29.75,NW,315,8.0,18.0,56,0.00,,,0.00,weatherlink.com 1.10,2013-04-14 16:33:00,
2013-04-14 09:48:00,55.9,45.0,29.77,SW,235,6.0,14.0,68,0.00,,,0.00,weatherlink.com 1.10,2013-04-14 16:48:00,
2013-04-14 10:03:00,54.7,45.0,29.76,SW,215,11.0,17.0,71,0.00,,,0.00,weatherlink.com 1.10,2013-04-14 17:03:00,
2013-04-14 10:18:00,55.7,46.0,29.77,WSW,246,6.0,16.0,69,0.00,,,0.00,weatherlink.com 1.10,2013-04-14 17:18:00,
2013-04-14 10:33:00,56.3,46.0,29.77,SSE,158,16.0,16.0,68,0.00,,,0.00,weatherlink.com 1.10,2013-04-14 17:33:00,
2013-04-14 10:48:00,57.6,46.0,29.77,West,274,5.0,13.0,65,0.00,,,0.00,weatherlink.com 1.10,2013-04-14 17:48:00,
2013-04-14 11:03:00,57.9,46.0,29.77,SSW,200,7.0,16.0,65,0.00,,,0.00,weatherlink.com 1.10,2013-04-14 18:03:00,
2013-04-14 11:18:00,59.1,46.0,29.75,SSW,201,12.0,16.0,62,0.00,,,0.00,weatherlink.com 1.10,2013-04-14 18:18:00,
2013-04-14 11:33:00,61.0,43.0,29.76,NE,41,4.0,17.0,51,0.00,,,0.00,weatherlink.com 1.10,2013-04-14 18:33:00,
2013-04-14 11:48:00,64.5,35.0,29.76,West,281,13.0,28.0,34,0.00,,,0.00,weatherlink.com 1.10,2013-04-14 18:48:00,
2013-04-14 12:03:00,65.7,35.0,29.77,West,260,7.0,22.0,32,0.00,,,0.00,weatherlink.com 1.10,2013-04-14 19:03:00,
2013-04-14 12:18:00,64.6,34.0,29.77,WNW,299,11.0,29.0,32,0.00,,,0.00,weatherlink.com 1.10,2013-04-14 19:18:00,
2013-04-14 12:33:00,66.0,38.0,29.76,WNW,297,4.0,20.0,36,0.00,,,0.00,weatherlink.com 1.10,2013-04-14 19:33:00,
2013-04-14 12:48:00,65.3,35.0,29.77,West,267,15.0,31.0,33,0.00,,,0.00,weatherlink.com 1.10,2013-04-14 19:48:00,
2013-04-14 13:03:00,64.9,36.0,29.77,West,281,4.0,21.0,35,0.00,,,0.00,weatherlink.com 1.10,2013-04-14 20:03:00,
2013-04-14 13:18:00,64.2,35.0,29.77,WNW,295,26.0,26.0,34,0.00,,,0.00,weatherlink.com 1.10,2013-04-14 20:18:00,
2013-04-14 13:33:00,66.0,38.0,29.77,West,280,7.0,28.0,36,0.00,,,0.00,weatherlink.com 1.10,2013-04-14 20:33:00,
2013-04-14 13:48:00,64.1,37.0,29.77,WNW,285,5.0,28.0,37,0.00,,,0.00,weatherlink.com 1.10,2013-04-14 20:48:00,
2013-04-14 14:03:00,64.3,39.0,29.77,WNW,301,14.0,30.0,39,0.00,,,0.00,weatherlink.com 1.10,2013-04-14 21:03:00,
2013-04-14 14:18:00,65.2,39.0,29.76,NNW,339,10.0,22.0,38,0.00,,,0.00,weatherlink.com 1.10,2013-04-14 21:18:00,
2013-04-14 14:33:00,63.8,38.0,29.76,WNW,301,21.0,31.0,38,0.00,,,0.00,weatherlink.com 1.10,2013-04-14 21:33:00,
2013-04-14 14:48:00,64.0,38.0,29.75,NNW,335,20.0,28.0,38,0.00,,,0.00,weatherlink.com 1.10,2013-04-14 21:48:00,
2013-04-14 15:03:00,64.6,38.0,29.75,West,267,7.0,29.0,38,0.00,,,0.00,weatherlink.com 1.10,2013-04-14 22:03:00,
2013-04-14 15:18:00,65.2,38.0,29.75,NW,305,23.0,23.0,37,0.00,,,0.00,weatherlink.com 1.10,2013-04-14 22:18:00,
2013-04-14 15:33:00,64.4,37.0,29.75,WNW,288,10.0,23.0,37,0.00,,,0.00,weatherlink.com 1.10,2013-04-14 22:33:00,
2013-04-14 15:48:00,66.6,40.0,29.73,South,187,3.0,18.0,38,0.00,,,0.00,weatherlink.com 1.10,2013-04-14 22:48:00,
2013-04-14 16:03:00,69.1,41.0,29.73,WNW,299,3.0,12.0,36,0.00,,,0.00,weatherlink.com 1.10,2013-04-14 23:03:00,
2013-04-14 16:18:00,68.0,43.0,29.73,SSW,210,6.0,13.0,41,0.00,,,0.00,weatherlink.com 1.10,2013-04-14 23:18:00,
2013-04-14 16:34:00,66.6,44.0,29.73,WSW,241,7.0,14.0,44,0.00,,,0.00,weatherlink.com 1.10,2013-04-14 23:34:00,
2013-04-14 16:49:00,65.6,45.0,29.73,SW,236,4.0,14.0,47,0.00,,,0.00,weatherlink.com 1.10,2013-04-14 23:49:00,
2013-04-14 17:04:00,64.3,46.0,29.73,SW,232,8.0,14.0,51,0.00,,,0.00,weatherlink.com 1.10,2013-04-15 00:04:00,
2013-04-14 17:19:00,62.4,46.0,29.73,NW,305,2.0,17.0,56,0.00,,,0.00,weatherlink.com 1.10,2013-04-15 00:19:00,
2013-04-14 17:34:00,61.7,46.0,29.73,South,184,8.0,16.0,57,0.00,,,0.00,weatherlink.com 1.10,2013-04-15 00:34:00,
2013-04-14 17:49:00,60.5,46.0,29.74,SW,218,7.0,17.0,59,0.00,,,0.00,weatherlink.com 1.10,2013-04-15 00:49:00,
2013-04-14 18:04:00,59.0,46.0,29.74,SW,222,6.0,13.0,62,0.00,,,0.00,weatherlink.com 1.10,2013-04-15 01:04:00,
2013-04-14 18:19:00,57.4,46.0,29.74,WSW,248,5.0,15.0,66,0.00,,,0.00,weatherlink.com 1.10,2013-04-15 01:19:00,
2013-04-14 18:34:00,55.2,46.0,29.73,SW,232,10.0,22.0,70,0.00,,,0.00,weatherlink.com 1.10,2013-04-15 01:34:00,
2013-04-14 18:49:00,53.1,45.0,29.73,SSW,195,18.0,20.0,75,0.00,,,0.00,weatherlink.com 1.10,2013-04-15 01:49:00,
2013-04-14 19:04:00,51.6,45.0,29.73,SE,141,9.0,18.0,78,0.00,,,0.00,weatherlink.com 1.10,2013-04-15 02:04:00,
2013-04-14 19:19:00,50.3,45.0,29.74,SSE,152,11.0,22.0,81,0.00,,,0.00,weatherlink.com 1.10,2013-04-15 02:19:00,
2013-04-14 19:34:00,49.6,45.0,29.75,SW,225,17.0,22.0,83,0.00,,,0.00,weatherlink.com 1.10,2013-04-15 02:34:00,
2013-04-14 19:49:00,48.9,45.0,29.75,SE,142,11.0,21.0,85,0.00,,,0.00,weatherlink.com 1.10,2013-04-15 02:49:00,
2013-04-14 20:04:00,48.5,44.0,29.75,SW,231,8.0,22.0,85,0.00,,,0.00,weatherlink.com 1.10,2013-04-15 03:04:00,
2013-04-14 20:19:00,48.2,44.0,29.75,SSE,162,16.0,20.0,86,0.00,,,0.00,weatherlink.com 1.10,2013-04-15 03:19:00,
2013-04-14 20:34:00,48.0,44.0,29.76,South,177,20.0,24.0,86,0.00,,,0.00,weatherlink.com 1.10,2013-04-15 03:34:00,
2013-04-14 20:49:00,47.7,44.0,29.76,ESE,110,8.0,25.0,86,0.00,,,0.00,weatherlink.com 1.10,2013-04-15 03:49:00,
2013-04-14 21:04:00,47.6,43.0,29.77,SSW,203,5.0,25.0,85,0.00,,,0.00,weatherlink.com 1.10,2013-04-15 04:04:00,
2013-04-14 21:19:00,47.3,43.0,29.77,South,180,13.0,23.0,86,0.00,,,0.00,weatherlink.com 1.10,2013-04-15 04:19:00,
2013-04-14 21:34:00,47.0,44.0,29.78,SSE,158,9.0,25.0,88,0.00,,,0.00,weatherlink.com 1.10,2013-04-15 04:34:00,
2013-04-14 21:49:00,46.8,44.0,29.78,SSE,160,19.0,22.0,88,0.00,,,0.00,weatherlink.com 1.10,2013-04-15 04:49:00,
2013-04-14 22:04:00,46.6,43.0,29.78,SSW,206,13.0,24.0,88,0.00,,,0.00,weatherlink.com 1.10,2013-04-15 05:04:00,
2013-04-14 22:19:00,46.3,43.0,29.78,SSW,211,17.0,24.0,88,0.00,,,0.00,weatherlink.com 1.10,2013-04-15 05:19:00,
2013-04-14 22:34:00,46.2,43.0,29.78,South,169,11.0,26.0,89,0.00,,,0.00,weatherlink.com 1.10,2013-04-15 05:34:00,
2013-04-14 22:49:00,46.1,43.0,29.77,WSW,257,13.0,26.0,89,0.00,,,0.00,weatherlink.com 1.10,2013-04-15 05:49:00,
2013-04-14 23:04:00,46.0,43.0,29.77,SSW,203,8.0,23.0,89,0.00,,,0.00,weatherlink.com 1.10,2013-04-15 06:04:00,
2013-04-14 23:19:00,45.9,43.0,29.77,SSW,200,13.0,22.0,89,0.00,,,0.00,weatherlink.com 1.10,2013-04-15 06:19:00,
2013-04-14 23:34:00,45.9,43.0,29.76,SSW,204,13.0,18.0,89,0.00,,,0.00,weatherlink.com 1.10,2013-04-15 06:34:00,
2013-04-14 23:49:00,45.7,43.0,29.76,SE,128,14.0,24.0,89,0.00,,,0.00,weatherlink.com 1.10,2013-04-15 06:49:00,